Location: ??????
(55.2000°N, 38.3000°E)
Time: 08:04:32
(UTC+00:00)

Cosmos 1400 Rocket - Pass Details

Date: 15 November 2025
Orbit: 476 x 513 km, 81.1° (Epoch: 14 December)

Event Time Altitude Azimuth Distance (km) Brightness Sun altitude
Exits shadow 02:46:55 18° 346° (NNW) 1,273 4.5 -18.6°
Maximum altitude 02:49:36 89° 76° (ENE) 498 2.5 -18.2°
Drops below altitude 10° 02:53:16 10° 167° (SSE) 1,668 5.5 -17.7°
Sets 02:55:20 0° 167° (SSE) 2,538 6.5 -17.4°
